Voltar ao catálogo

COSMOS 1109 DEB

LostHEO
NORAD 27894·DEBRIS·🇷🇺 Russia

Lançado Jun 27, 1979 de Plesetsk Cosmodrome

Loading…

Próximas Passagens (próximas 24 horas)

TLE

ObsoletoSource: Space-Track

Época: Feb 25, 2014, 04:10 UTC

1 27894U 79058P   14056.17361373 -.00000782  00000-0  00000+0 0  9993
2 27894  66.9768 137.4125 6863302   9.3949   2.0922  1.98522654 78810

Acompanhe COSMOS 1109 DEB em tempo real com AllMySat

Download on the App Store